Weather History for Montpelier, VT

Change the Weather History Date:

Tuesday, August 27, 2013

  Actual Average Record
Temperature  
Mean Temperature 71 °F 64 °F  
Max Temperature 80 °F 75 °F 91 °F (1952)
Min Temperature 62 °F 52 °F 36 °F (1954)
Degree Days  
Heating Degree Days 0 3  
Month to date heating degree days 55  
Since 1 June heating degree days 216  
Since 1 July heating degree days 95  
Cooling Degree Days 6 2  
Month to date cooling degree days 33 70  
Year to date cooling degree days 273 238  
Since 1 June cooling degree days 262 228  
Growing Degree Days 22 (Base 50)    
Moisture  
Dew Point 65 °F    
Average Humidity 81    
Maximum Humidity 100    
Minimum Humidity 62    
Precipitation  
Precipitation 0.00 in 0.10 in 1.43 in (1983)
Month to date precipitation 2.07 3.61  
Year to date precipitation 25.03 24.40  
Sea Level Pressure  
Sea Level Pressure 29.95 in    
Wind  
Wind Speed 2 mph (North)    
Max Wind Speed 9 mph    
Max Gust Speed 12 mph    
Visibility 6 miles    
Events Fog    
T = Trace of Precipitation, MM = Missing Value Source: NWS Daily Summary

Daily Weather History Graph

Daily Weather History Graph

Search for Another Location

Airport:

Trip Planner

Search our weather history database for the weather conditions in past years. The results will help you decide how hot, cold, wet, or windy it might be!

Date:

Astronomy

Aug. 27, 2013 Rise Set
Actual Time 6:07 AM EDT 7:34 PM EDT
Civil Twilight 5:37 AM EDT 8:04 PM EDT
Nautical Twilight 5:00 AM EDT 8:41 PM EDT
Astronomical Twilight 4:21 AM EDT 9:20 PM EDT
Moon 11:09 PM EDT (8/27) 1:19 PM EDT (8/27)
Length of Visible Light 14h 27m
Length of Day
13h 27m
Waning Gibbous, 57% of the Moon is Illuminated
Aug 27
Waning Gibbous
Aug 28
Last Quarter
Sep 5
New
Sep 12
First Quarter
Sep 19
Full

Hourly Weather History & Observations

Time (EDT) Temp. Dew Point Humidity Pressure Visibility Wind Dir Wind Speed Gust Speed Precip Events Conditions
12:37 AM 66.2 °F 66.2 °F 100% 29.94 in 2.5 mi South 3.5 mph - 0.01 in   Scattered Clouds
5:51 AM 66.0 °F 64.9 °F 96% 29.94 in 5.0 mi Calm Calm - N/A   Mostly Cloudy
5:55 AM 64.4 °F 64.4 °F 100% 29.95 in 1.8 mi Calm Calm - N/A   Mostly Cloudy
6:06 AM 64.4 °F 64.4 °F 100% 29.95 in 3.0 mi Calm Calm - N/A   Mostly Cloudy
6:16 AM 64.4 °F 64.4 °F 100% 29.95 in 2.0 mi Calm Calm - N/A   Mostly Cloudy
6:19 AM 64.4 °F 64.4 °F 100% 29.95 in 1.2 mi Calm Calm - N/A   Mostly Cloudy
6:22 AM 64.4 °F 64.4 °F 100% 29.95 in 0.8 mi Calm Calm - N/A   Mostly Cloudy
6:29 AM 64.4 °F 64.4 °F 100% 29.95 in 0.5 mi Calm Calm - N/A Fog Fog
6:36 AM 64.4 °F 64.4 °F 100% 29.95 in 0.8 mi Calm Calm - N/A   Mostly Cloudy
6:38 AM 64.4 °F 64.4 °F 100% 29.96 in 1.2 mi Calm Calm - N/A   Overcast
6:46 AM 64.4 °F 64.4 °F 100% 29.95 in 1.8 mi Calm Calm - N/A   Overcast
6:51 AM 64.9 °F 64.9 °F 100% 29.95 in 2.0 mi Calm Calm - N/A   Overcast
7:03 AM 66.2 °F 66.2 °F 100% 29.96 in 3.0 mi Calm Calm - N/A   Overcast
7:29 AM 66.2 °F 66.2 °F 100% 29.96 in 4.0 mi Calm Calm - N/A   Mostly Cloudy
7:37 AM 66.2 °F 66.2 °F 100% 29.96 in 5.0 mi Calm Calm - N/A   Mostly Cloudy
7:44 AM 66.2 °F 66.2 °F 100% 29.96 in 5.0 mi Calm Calm - N/A   Mostly Cloudy
7:51 AM 66.9 °F 66.0 °F 97% 29.95 in 5.0 mi Calm Calm - N/A   Mostly Cloudy
7:58 AM 66.2 °F 66.2 °F 100% 29.96 in 6.0 mi Calm Calm - N/A   Mostly Cloudy
8:05 AM 68.0 °F 66.2 °F 94% 29.96 in 6.0 mi Calm Calm - N/A   Scattered Clouds
8:27 AM 68.0 °F 66.2 °F 94% 29.96 in 3.0 mi NE 4.6 mph - N/A   Mostly Cloudy
8:33 AM 68.0 °F 66.2 °F 94% 29.96 in 1.8 mi NNE 3.5 mph - N/A   Mostly Cloudy
8:48 AM 68.0 °F 66.2 °F 94% 29.96 in 2.5 mi ENE 4.6 mph - N/A   Overcast
8:51 AM 68.0 °F 66.9 °F 96% 29.95 in 3.0 mi NE 3.5 mph - N/A   Overcast
9:05 AM 68.0 °F 66.2 °F 94% 29.96 in 2.5 mi Calm Calm - N/A   Overcast
9:15 AM 68.0 °F 66.2 °F 94% 29.97 in 4.0 mi Calm Calm - N/A   Overcast
9:23 AM 69.8 °F 66.2 °F 88% 29.97 in 6.0 mi Calm Calm - N/A   Overcast
9:51 AM 70.0 °F 66.0 °F 87% 29.97 in 8.0 mi Calm Calm - N/A   Overcast
10:22 AM 71.6 °F 64.4 °F 78% 29.98 in 10.0 mi Calm Calm - N/A   Overcast
10:42 AM 71.6 °F 66.2 °F 83% 29.98 in 10.0 mi North 4.6 mph - N/A   Overcast
10:51 AM 72.0 °F 64.9 °F 78% 29.97 in 10.0 mi Calm Calm - N/A   Overcast
11:00 AM 71.6 °F 66.2 °F 83% 29.98 in 10.0 mi NE 3.5 mph - N/A   Overcast
11:40 AM 75.2 °F 66.2 °F 73% 29.97 in 10.0 mi Calm Calm - N/A   Overcast
11:48 AM 75.2 °F 66.2 °F 73% 29.97 in 10.0 mi NNE 4.6 mph - N/A   Mostly Cloudy
11:51 AM 75.0 °F 66.0 °F 73% 29.96 in 10.0 mi Calm Calm - N/A   Mostly Cloudy
12:28 PM 75.2 °F 64.4 °F 69% 29.97 in 10.0 mi Calm Calm - N/A   Mostly Cloudy
12:43 PM 75.2 °F 64.4 °F 69% 29.96 in 10.0 mi Calm Calm - N/A   Scattered Clouds
12:51 PM 77.0 °F 66.0 °F 69% 29.94 in 10.0 mi Variable 3.5 mph - N/A   Partly Cloudy
1:08 PM 77.0 °F 64.4 °F 65% 29.96 in 10.0 mi NNE 4.6 mph - N/A   Mostly Cloudy
1:30 PM 78.8 °F 64.4 °F 61% 29.95 in 10.0 mi NW 3.5 mph - N/A   Mostly Cloudy
1:51 PM 75.9 °F 66.0 °F 71% 29.94 in 10.0 mi West 3.5 mph - N/A   Mostly Cloudy
2:51 PM 77.0 °F 66.0 °F 69% 29.92 in 10.0 mi North 3.5 mph - N/A   Overcast
3:51 PM 79.0 °F 64.9 °F 62% 29.91 in 10.0 mi NNW 3.5 mph - N/A   Clear
4:51 PM 79.0 °F 64.9 °F 62% 29.91 in 10.0 mi NW 6.9 mph - N/A   Clear
5:51 PM 78.1 °F 64.9 °F 64% 29.91 in 10.0 mi NNW 6.9 mph - N/A   Clear
6:51 PM 73.9 °F 64.9 °F 73% 29.92 in 10.0 mi NW 6.9 mph - N/A   Clear
7:51 PM 71.1 °F 64.9 °F 81% 29.94 in 10.0 mi Calm Calm - N/A   Clear
8:51 PM 68.0 °F 64.9 °F 90% 29.95 in 10.0 mi Calm Calm - N/A   Clear
9:51 PM 66.9 °F 64.9 °F 93% 29.96 in 10.0 mi Calm Calm - N/A   Clear
10:51 PM 66.0 °F 64.0 °F 93% 29.96 in 9.0 mi Calm Calm - N/A   Partly Cloudy
11:51 PM 64.0 °F 62.1 °F 93% 29.97 in 7.0 mi Calm Calm - N/A   Partly Cloudy